Greenville Downtown, SC

8:27 AM EST on November 18, 2019 (GMT -0500)
Greenville Downtown

Weather History for KGMU - October, 2019

Change the Weather History Date:

Sunday, October 20, 2019

  Actual Average Record
Temperature  
Mean Temperature 66 °F -  
Max Temperature 80 °F 68 °F 88 °F (2016)
Min Temperature 53 °F 49 °F 37 °F (1996)
Cooling Degree Days 2    
Growing Degree Days 16 (Base 50)    
Moisture  
Dew Point 57 °F    
Average Humidity 81    
Maximum Humidity 97    
Minimum Humidity 52    
Precipitation  
Precipitation 0.04 in - - ()
Sea Level Pressure  
Sea Level Pressure 29.82 in    
Wind  
Wind Speed 14 mph (North)    
Max Wind Speed 23 mph    
Max Gust Speed 30 mph    
Visibility 9 miles    
Events Rain    
Averages and records for this station are not official NWS values.
T = Trace of Precipitation, MM = Missing Value Source: NWS Daily Summary

Daily Weather History Graph

Daily Weather History Graph

Search for Another Location

Airport or City:

Astronomy

Oct. 20, 2019 Rise Set
Actual Time 7:39 AM EDT 6:48 PM EDT
Civil Twilight 7:13 AM EDT 7:14 PM EDT
Nautical Twilight 6:44 AM EDT 7:43 PM EDT
Astronomical Twilight 6:14 AM EDT 8:12 PM EDT
Moon No Moon Rise 1:56 PM EDT (10/20)
Length of Visible Light 12h 00m
Length of Day
11h 09m
Waning Gibbous, 59% of the Moon is Illuminated
Oct 20
Waning Gibbous
Oct 21
Last Quarter
Oct 27
New
Nov 4
First Quarter
Nov 12
Full

Hourly Weather History & Observations

Time (EDT) Temp. Heat Index Dew Point Humidity Pressure Visibility Wind Dir Wind Speed Gust Speed Precip Events Conditions
12:28 AM 53.1 °F - 52.0 °F 96% 29.80 in 2.5 mi NNE 20.7 mph - 0.01 in Rain Light Rain
12:37 AM 54.0 °F - 52.0 °F 93% 29.80 in 4.0 mi NNE 18.4 mph 29.9 mph 0.02 in Rain Light Rain
12:53 AM 54.0 °F - 52.0 °F 93% 29.79 in 4.0 mi NNE 23.0 mph 28.8 mph 0.02 in Rain Light Rain
1:03 AM 54.0 °F - 53.1 °F 97% 29.80 in 5.0 mi NNE 21.9 mph 29.9 mph 0.00 in Rain Light Rain
1:53 AM 54.0 °F - 53.1 °F 97% 29.75 in 10.0 mi NNE 21.9 mph 27.6 mph 0.00 in   Overcast
2:03 AM 54.0 °F - 53.1 °F 97% 29.76 in 9.0 mi NNE 21.9 mph 28.8 mph 0.00 in Rain Light Rain
2:53 AM 55.0 °F - 54.0 °F 96% 29.73 in 10.0 mi NNE 20.7 mph 27.6 mph 0.02 in Rain Light Rain
3:14 AM 55.9 °F - 54.0 °F 93% 29.73 in 7.0 mi NNE 19.6 mph 29.9 mph 0.00 in Rain Light Rain
3:53 AM 55.9 °F - 55.0 °F 97% 29.70 in 9.0 mi NNE 18.4 mph - 0.00 in   Overcast
4:27 AM 57.0 °F - 55.0 °F 93% 29.71 in 10.0 mi NNE 18.4 mph 25.3 mph N/A   Overcast
4:53 AM 57.9 °F - 55.0 °F 90% 29.72 in 10.0 mi NE 13.8 mph - N/A   Overcast
5:53 AM 57.9 °F - 55.9 °F 93% 29.74 in 10.0 mi North 11.5 mph - N/A   Overcast
6:44 AM 59.0 °F - 55.9 °F 90% 29.76 in 10.0 mi NNE 9.2 mph - N/A   Overcast
6:53 AM 59.0 °F - 55.9 °F 90% 29.75 in 10.0 mi NNE 11.5 mph - N/A   Overcast
7:53 AM 57.0 °F - 55.0 °F 93% 29.78 in 10.0 mi North 3.5 mph - N/A   Clear
8:53 AM 61.0 °F - 57.0 °F 87% 29.81 in 10.0 mi North 5.8 mph - N/A   Clear
9:53 AM 66.0 °F - 57.9 °F 75% 29.84 in 10.0 mi NNW 5.8 mph - N/A   Clear
10:53 AM 66.9 °F - 57.9 °F 73% 29.85 in 10.0 mi West 4.6 mph - N/A   Clear
11:53 AM 70.0 °F - 57.9 °F 65% 29.86 in 10.0 mi West 8.1 mph - N/A   Clear
12:53 PM 73.0 °F - 59.0 °F 61% 29.86 in 10.0 mi WSW 8.1 mph - N/A   Clear
1:53 PM 75.0 °F - 60.1 °F 60% 29.85 in 10.0 mi NW 4.6 mph - N/A   Clear
2:53 PM 77.0 °F - 60.1 °F 56% 29.84 in 10.0 mi Variable 4.6 mph - N/A   Clear
3:53 PM 80.1 °F 81.1 °F 61.0 °F 52% 29.84 in 10.0 mi Variable 5.8 mph - N/A   Clear
4:53 PM 79.0 °F - 61.0 °F 54% 29.86 in 10.0 mi South 3.5 mph - N/A   Clear
5:53 PM 78.1 °F - 62.1 °F 58% 29.87 in 10.0 mi West 6.9 mph - N/A   Clear
6:53 PM 75.0 °F - 62.1 °F 64% 29.89 in 10.0 mi SW 4.6 mph - N/A   Clear
7:53 PM 71.1 °F - 63.0 °F 75% 29.91 in 10.0 mi Calm Calm - N/A   Clear
9:53 PM 68.0 °F - 62.1 °F 81% 29.94 in 10.0 mi Calm Calm - N/A   Clear
10:53 PM 66.9 °F - 61.0 °F 81% 29.96 in 10.0 mi Calm Calm - N/A   Clear
11:53 PM 66.0 °F - 60.1 °F 81% 29.96 in 10.0 mi East 4.6 mph - N/A   Clear